Climatologie pour Saint-Brevin les Pins
Jour • Résumé pour avril 15, 2017 Système :  Métrique    Anglais   Mixte
« - 1 jour
+ 1 jour »
Jour Semaine Mois Année Personnalisé
  Maximum : Minimum : Moyenne :
Température sous abri : 15.3 °C 10.1 °C 12.3 °C
Point de rosée : 11.3 °C 7.7 °C 9.3 °C
Humidité : 91 % 68 % 83 %
Vitesse du vent : 20.9 km/h 0.0 km/h 5.2 km/h
Rafale : 27.4 km/h - -
Direction :- - WNW
Pression : 1024.9 hPa 1020.2 hPa -
Précipitations : 0.0 mm    
Historical Graphs
 
 
Tableau de données pour avril 15, 2017
Heure Tempé Pt rosée Pression Vent Vitesse Rafale Humidité Taux pluie (/hr) Soleil
00:00 11.4 °C 8.6 °C 1020.9 hPa WNW 9.7 km/h 9.7 km/h 83 % 0.0 mm 0 W/m2
00:05 11.4 °C 8.7 °C 1020.9 hPa WNW 3.2 km/h 9.7 km/h 83 % 0.0 mm 0 W/m2
00:10 11.4 °C 8.6 °C 1020.9 hPa NW 6.4 km/h 11.3 km/h 83 % 0.0 mm 0 W/m2
00:15 11.4 °C 8.6 °C 1020.5 hPa NW 1.6 km/h 11.3 km/h 83 % 0.0 mm 0 W/m2
00:25 11.2 °C 8.4 °C 1020.5 hPa Calm   9.7 km/h 83 % 0.0 mm 0 W/m2
00:30 11.2 °C 8.3 °C 1020.5 hPa WNW 3.2 km/h 8.0 km/h 82 % 0.0 mm 0 W/m2
00:35 11.2 °C 8.3 °C 1020.9 hPa WNW 4.8 km/h 8.0 km/h 82 % 0.0 mm 0 W/m2
00:40 11.1 °C 8.3 °C 1020.5 hPa Calm   9.7 km/h 83 % 0.0 mm 0 W/m2
00:45 11.1 °C 8.3 °C 1020.5 hPa Calm   9.7 km/h 83 % 0.0 mm 0 W/m2
00:50 11.1 °C 8.3 °C 1020.5 hPa NW 4.8 km/h 8.0 km/h 83 % 0.0 mm 0 W/m2
00:55 11.1 °C 8.3 °C 1020.5 hPa NW 8.0 km/h 11.3 km/h 83 % 0.0 mm 0 W/m2
01:05 11.0 °C 8.2 °C 1020.5 hPa WNW 1.6 km/h 8.0 km/h 83 % 0.0 mm 0 W/m2
01:10 11.1 °C 8.3 °C 1020.9 hPa WNW 4.8 km/h 8.0 km/h 83 % 0.0 mm 0 W/m2
01:15 11.2 °C 8.4 °C 1020.5 hPa WNW 4.8 km/h 8.0 km/h 83 % 0.0 mm 0 W/m2
01:20 11.2 °C 8.4 °C 1020.5 hPa NW 4.8 km/h 6.4 km/h 83 % 0.0 mm 0 W/m2
01:25 11.1 °C 8.5 °C 1020.5 hPa WNW 1.6 km/h 6.4 km/h 84 % 0.0 mm 0 W/m2
01:30 11.1 °C 8.6 °C 1020.5 hPa WNW 1.6 km/h 8.0 km/h 85 % 0.0 mm 0 W/m2
01:35 11.1 °C 8.6 °C 1020.5 hPa NW 1.6 km/h 8.0 km/h 85 % 0.0 mm 0 W/m2
01:40 11.0 °C 8.6 °C 1020.5 hPa Calm   6.4 km/h 85 % 0.0 mm 0 W/m2
01:45 10.9 °C 8.7 °C 1020.5 hPa NW 3.2 km/h 6.4 km/h 86 % 0.0 mm 0 W/m2
01:50 11.0 °C 8.6 °C 1020.5 hPa Calm   3.2 km/h 85 % 0.0 mm 0 W/m2
01:55 10.9 °C 8.6 °C 1020.5 hPa Calm   3.2 km/h 86 % 0.0 mm 0 W/m2
02:00 10.8 °C 8.6 °C 1020.5 hPa NW 1.6 km/h 1.6 km/h 86 % 0.0 mm 0 W/m2
02:05 10.8 °C 8.7 °C 1020.5 hPa WNW 1.6 km/h 3.2 km/h 87 % 0.0 mm 0 W/m2
02:10 10.8 °C 8.6 °C 1020.9 hPa Calm   4.8 km/h 86 % 0.0 mm 0 W/m2
02:15 10.8 °C 8.6 °C 1020.5 hPa Calm   4.8 km/h 86 % 0.0 mm 0 W/m2
02:20 10.8 °C 8.6 °C 1020.9 hPa Calm   4.8 km/h 86 % 0.0 mm 0 W/m2
02:25 10.7 °C 8.6 °C 1020.5 hPa Calm   1.6 km/h 87 % 0.0 mm 0 W/m2
02:30 10.7 °C 8.6 °C 1020.5 hPa Calm   3.2 km/h 87 % 0.0 mm 0 W/m2
02:35 10.6 °C 8.7 °C 1020.5 hPa Calm   3.2 km/h 88 % 0.0 mm 0 W/m2
02:40 10.4 °C 8.5 °C 1020.5 hPa Calm   1.6 km/h 88 % 0.0 mm 0 W/m2
02:45 10.4 °C 8.5 °C 1020.5 hPa Calm     88 % 0.0 mm 0 W/m2
02:50 10.4 °C 8.7 °C 1020.5 hPa Calm     89 % 0.0 mm 0 W/m2
02:55 10.4 °C 8.7 °C 1020.5 hPa Calm     89 % 0.0 mm 0 W/m2
03:00 10.4 °C 8.7 °C 1020.5 hPa Calm   1.6 km/h 89 % 0.0 mm 0 W/m2
03:05 10.3 °C 8.6 °C 1020.5 hPa Calm   1.6 km/h 89 % 0.0 mm 0 W/m2
03:10 10.3 °C 8.5 °C 1020.5 hPa Calm     89 % 0.0 mm 0 W/m2
03:15 10.3 °C 8.7 °C 1020.5 hPa Calm     90 % 0.0 mm 0 W/m2
03:20 10.2 °C 8.7 °C 1020.5 hPa Calm   1.6 km/h 90 % 0.0 mm 0 W/m2
03:25 10.2 °C 8.6 °C 1020.5 hPa Calm   3.2 km/h 90 % 0.0 mm 0 W/m2
03:30 10.2 °C 8.6 °C 1020.2 hPa Calm   3.2 km/h 90 % 0.0 mm 0 W/m2
03:35 10.1 °C 8.5 °C 1020.2 hPa Calm   1.6 km/h 90 % 0.0 mm 0 W/m2
03:40 10.1 °C 8.7 °C 1020.2 hPa Calm   1.6 km/h 91 % 0.0 mm 0 W/m2
03:45 10.1 °C 8.7 °C 1020.5 hPa Calm   1.6 km/h 91 % 0.0 mm 0 W/m2
03:50 10.2 °C 8.8 °C 1020.2 hPa Calm   3.2 km/h 91 % 0.0 mm 0 W/m2
03:55 10.2 °C 8.8 °C 1020.2 hPa Calm   3.2 km/h 91 % 0.0 mm 0 W/m2
04:00 10.2 °C 8.8 °C 1020.2 hPa WNW 3.2 km/h 4.8 km/h 91 % 0.0 mm 0 W/m2
04:05 10.2 °C 8.8 °C 1020.5 hPa WNW 3.2 km/h 4.8 km/h 91 % 0.0 mm 0 W/m2
04:10 10.2 °C 8.8 °C 1020.2 hPa Calm   4.8 km/h 91 % 0.0 mm 0 W/m2
04:15 10.2 °C 8.8 °C 1020.5 hPa Calm   4.8 km/h 91 % 0.0 mm 0 W/m2
04:20 10.2 °C 8.8 °C 1020.5 hPa WNW 1.6 km/h 4.8 km/h 91 % 0.0 mm 0 W/m2
04:25 10.2 °C 8.7 °C 1020.5 hPa Calm   4.8 km/h 90 % 0.0 mm 0 W/m2
04:30 10.3 °C 8.8 °C 1020.5 hPa Calm   6.4 km/h 90 % 0.0 mm 0 W/m2
04:35 10.4 °C 8.9 °C 1020.5 hPa WNW 4.8 km/h 6.4 km/h 90 % 0.0 mm 0 W/m2
04:40 10.4 °C 8.7 °C 1020.5 hPa Calm   8.0 km/h 89 % 0.0 mm 0 W/m2
04:45 10.4 °C 8.9 °C 1020.5 hPa Calm   8.0 km/h 90 % 0.0 mm 0 W/m2
04:50 10.4 °C 8.9 °C 1020.5 hPa NW 4.8 km/h 8.0 km/h 90 % 0.0 mm 0 W/m2
04:55 10.4 °C 8.9 °C 1020.5 hPa NNW 1.6 km/h 8.0 km/h 90 % 0.0 mm 0 W/m2
05:00 10.4 °C 8.8 °C 1020.5 hPa WNW 1.6 km/h 11.3 km/h 90 % 0.0 mm 0 W/m2
05:10 10.4 °C 8.7 °C 1020.5 hPa NW 1.6 km/h 11.3 km/h 89 % 0.0 mm 0 W/m2
05:15 10.5 °C 8.8 °C 1020.5 hPa NNW 3.2 km/h 11.3 km/h 89 % 0.0 mm 0 W/m2
05:20 10.5 °C 8.8 °C 1020.5 hPa NNW 6.4 km/h 11.3 km/h 89 % 0.0 mm 0 W/m2
05:25 10.6 °C 8.7 °C 1020.5 hPa NNW 3.2 km/h 11.3 km/h 88 % 0.0 mm 0 W/m2
05:30 10.6 °C 8.7 °C 1020.9 hPa NW 3.2 km/h 11.3 km/h 88 % 0.0 mm 0 W/m2
05:35 10.5 °C 8.6 °C 1020.9 hPa NW 4.8 km/h 8.0 km/h 88 % 0.0 mm 0 W/m2
05:40 10.5 °C 8.6 °C 1020.9 hPa NE 1.6 km/h 11.3 km/h 88 % 0.0 mm 0 W/m2
05:45 10.6 °C 8.5 °C 1020.9 hPa NNW 1.6 km/h 11.3 km/h 87 % 0.0 mm 0 W/m2
05:50 10.6 °C 8.5 °C 1020.9 hPa North 1.6 km/h 11.3 km/h 87 % 0.0 mm 0 W/m2
05:55 10.4 °C 8.4 °C 1020.9 hPa Calm   11.3 km/h 87 % 0.0 mm 0 W/m2
06:00 10.4 °C 8.5 °C 1020.9 hPa Calm   9.7 km/h 88 % 0.0 mm 0 W/m2
06:05 10.4 °C 8.3 °C 1020.9 hPa North 1.6 km/h 9.7 km/h 87 % 0.0 mm 0 W/m2
06:10 10.4 °C 8.3 °C 1020.9 hPa NW 1.6 km/h 9.7 km/h 87 % 0.0 mm 0 W/m2
06:15 10.4 °C 8.3 °C 1020.9 hPa North 3.2 km/h 9.7 km/h 87 % 0.0 mm 0 W/m2
06:20 10.4 °C 8.3 °C 1020.9 hPa Calm   9.7 km/h 87 % 0.0 mm 0 W/m2
06:25 10.4 °C 8.3 °C 1020.9 hPa North 4.8 km/h 9.7 km/h 87 % 0.0 mm 0 W/m2
06:30 10.3 °C 8.3 °C 1020.9 hPa NW 1.6 km/h 9.7 km/h 87 % 0.0 mm 0 W/m2
06:35 10.3 °C 8.2 °C 1020.9 hPa Calm   11.3 km/h 87 % 0.0 mm 0 W/m2
06:45 10.2 °C 8.3 °C 1020.9 hPa Calm   6.4 km/h 88 % 0.0 mm 0 W/m2
06:50 10.2 °C 8.3 °C 1020.9 hPa North 4.8 km/h 8.0 km/h 88 % 0.0 mm 0 W/m2
06:55 10.1 °C 8.2 °C 1020.9 hPa North 1.6 km/h 9.7 km/h 88 % 0.0 mm 0 W/m2
07:00 10.2 °C 8.3 °C 1020.9 hPa NNW 1.6 km/h 9.7 km/h 88 % 0.0 mm 0 W/m2
07:05 10.2 °C 8.1 °C 1021.2 hPa NNW 4.8 km/h 9.7 km/h 87 % 0.0 mm 0 W/m2
07:10 10.2 °C 8.1 °C 1021.2 hPa North 6.4 km/h 9.7 km/h 87 % 0.0 mm 0 W/m2
07:15 10.1 °C 8.2 °C 1021.2 hPa North 3.2 km/h 9.7 km/h 88 % 0.0 mm 0 W/m2
07:20 10.1 °C 8.0 °C 1021.2 hPa Calm   8.0 km/h 87 % 0.0 mm 0 W/m2
07:25 10.2 °C 8.1 °C 1021.2 hPa NNW 3.2 km/h 9.7 km/h 87 % 0.0 mm 0 W/m2
07:30 10.1 °C 8.0 °C 1021.2 hPa NNW 1.6 km/h 9.7 km/h 87 % 0.0 mm 0 W/m2
07:35 10.1 °C 8.0 °C 1021.2 hPa NNW 1.6 km/h 8.0 km/h 87 % 0.0 mm 5 W/m2
07:40 10.1 °C 8.0 °C 1021.6 hPa Calm   11.3 km/h 87 % 0.0 mm 0 W/m2
07:45 10.2 °C 7.9 °C 1021.6 hPa Calm   11.3 km/h 86 % 0.0 mm 5 W/m2
07:50 10.2 °C 7.9 °C 1021.6 hPa Calm   4.8 km/h 86 % 0.0 mm 7 W/m2
07:55 10.2 °C 7.9 °C 1021.6 hPa NW 4.8 km/h 6.4 km/h 86 % 0.0 mm 11 W/m2
08:00 10.2 °C 8.0 °C 1021.6 hPa NW 4.8 km/h 9.7 km/h 86 % 0.0 mm 11 W/m2
08:05 10.2 °C 8.0 °C 1021.6 hPa NNW 3.2 km/h 9.7 km/h 86 % 0.0 mm 14 W/m2
08:10 10.3 °C 7.9 °C 1021.9 hPa Calm   9.7 km/h 85 % 0.0 mm 16 W/m2
08:15 10.4 °C 7.8 °C 1021.9 hPa WNW 6.4 km/h 9.7 km/h 84 % 0.0 mm 19 W/m2
08:20 10.5 °C 7.9 °C 1021.9 hPa NNW 3.2 km/h 9.7 km/h 84 % 0.0 mm 26 W/m2
08:25 10.6 °C 7.8 °C 1021.9 hPa NW 1.6 km/h 9.7 km/h 83 % 0.0 mm 30 W/m2
08:30 10.7 °C 8.1 °C 1021.9 hPa Calm   8.0 km/h 84 % 0.0 mm 35 W/m2
08:35 10.7 °C 7.9 °C 1021.9 hPa NW 4.8 km/h 8.0 km/h 83 % 0.0 mm 37 W/m2
08:40 10.8 °C 7.9 °C 1021.9 hPa WNW 1.6 km/h 8.0 km/h 82 % 0.0 mm 46 W/m2
08:45 10.9 °C 7.8 °C 1021.9 hPa WNW 6.4 km/h 12.9 km/h 81 % 0.0 mm 42 W/m2
08:50 11.0 °C 7.7 °C 1021.9 hPa NNW 3.2 km/h 12.9 km/h 80 % 0.0 mm 47 W/m2
08:55 11.1 °C 7.7 °C 1021.9 hPa Calm   9.7 km/h 80 % 0.0 mm 54 W/m2
09:00 11.1 °C 7.8 °C 1022.2 hPa WNW 4.8 km/h 8.0 km/h 80 % 0.0 mm 47 W/m2
09:05 11.2 °C 8.0 °C 1022.2 hPa WNW 3.2 km/h 9.7 km/h 81 % 0.0 mm 47 W/m2
09:10 11.2 °C 8.0 °C 1022.2 hPa NW 1.6 km/h 9.7 km/h 81 % 0.0 mm 54 W/m2
09:15 11.2 °C 8.2 °C 1022.2 hPa NW 3.2 km/h 8.0 km/h 82 % 0.0 mm 60 W/m2
09:20 11.2 °C 8.0 °C 1022.2 hPa NW 3.2 km/h 9.7 km/h 81 % 0.0 mm 69 W/m2
09:25 11.3 °C 8.3 °C 1022.2 hPa NW 11.3 km/h 11.3 km/h 82 % 0.0 mm 76 W/m2
09:30 11.4 °C 8.1 °C 1022.2 hPa NNW 4.8 km/h 11.3 km/h 80 % 0.0 mm 76 W/m2
09:35 11.4 °C 8.3 °C 1022.2 hPa Calm   11.3 km/h 81 % 0.0 mm 91 W/m2
09:40 11.6 °C 8.4 °C 1022.6 hPa WNW 6.4 km/h 9.7 km/h 81 % 0.0 mm 90 W/m2
09:45 11.6 °C 8.5 °C 1022.6 hPa WNW 4.8 km/h 9.7 km/h 81 % 0.0 mm 93 W/m2
09:50 11.7 °C 8.1 °C 1022.6 hPa NNW 4.8 km/h 8.0 km/h 79 % 0.0 mm 102 W/m2
09:55 11.7 °C 8.4 °C 1022.6 hPa NW 8.0 km/h 8.0 km/h 80 % 0.0 mm 104 W/m2
10:00 11.8 °C 8.3 °C 1022.6 hPa WNW 1.6 km/h 11.3 km/h 79 % 0.0 mm 104 W/m2
10:05 11.8 °C 8.4 °C 1022.6 hPa NNW 4.8 km/h 11.3 km/h 80 % 0.0 mm 107 W/m2
10:10 11.8 °C 8.5 °C 1022.6 hPa NW 3.2 km/h 12.9 km/h 80 % 0.0 mm 116 W/m2
10:15 11.9 °C 8.6 °C 1022.6 hPa WNW 1.6 km/h 12.9 km/h 80 % 0.0 mm 141 W/m2
10:20 12.1 °C 8.5 °C 1022.6 hPa Calm   9.7 km/h 79 % 0.0 mm 167 W/m2
10:25 12.3 °C 8.6 °C 1022.6 hPa NW 11.3 km/h 14.5 km/h 78 % 0.0 mm 207 W/m2
10:30 12.4 °C 8.7 °C 1022.6 hPa NW 8.0 km/h 14.5 km/h 78 % 0.0 mm 193 W/m2
10:35 12.6 °C 8.6 °C 1022.9 hPa Calm   11.3 km/h 77 % 0.0 mm 209 W/m2
10:40 12.7 °C 8.4 °C 1022.9 hPa WNW 8.0 km/h 12.9 km/h 75 % 0.0 mm 223 W/m2
10:45 12.9 °C 8.6 °C 1022.9 hPa WNW 8.0 km/h 12.9 km/h 75 % 0.0 mm 204 W/m2
10:50 13.0 °C 8.9 °C 1022.9 hPa NW 9.7 km/h 11.3 km/h 76 % 0.0 mm 183 W/m2
10:55 12.9 °C 8.4 °C 1022.9 hPa NW 3.2 km/h 12.9 km/h 74 % 0.0 mm 225 W/m2
11:00 12.9 °C 8.4 °C 1022.9 hPa NW 6.4 km/h 12.9 km/h 74 % 0.0 mm 267 W/m2
11:05 13.2 °C 8.6 °C 1022.9 hPa West 1.6 km/h 11.3 km/h 74 % 0.0 mm 302 W/m2
11:10 13.6 °C 9.1 °C 1023.2 hPa West 9.7 km/h 11.3 km/h 74 % 0.0 mm 366 W/m2
11:15 13.7 °C 9.2 °C 1022.9 hPa WNW 3.2 km/h 11.3 km/h 74 % 0.0 mm 380 W/m2
11:25 13.8 °C 8.5 °C 1023.2 hPa WNW 9.7 km/h 12.9 km/h 70 % 0.0 mm 401 W/m2
11:30 14.3 °C 9.8 °C 1023.2 hPa NW 8.0 km/h 12.9 km/h 74 % 0.0 mm 425 W/m2
11:35 14.2 °C 8.6 °C 1022.9 hPa Calm   9.7 km/h 69 % 0.0 mm 380 W/m2
11:40 14.4 °C 8.6 °C 1023.2 hPa NW 9.7 km/h 12.9 km/h 68 % 0.0 mm 297 W/m2
11:45 14.1 °C 8.2 °C 1023.2 hPa WNW 4.8 km/h 12.9 km/h 68 % 0.0 mm 253 W/m2
11:50 14.0 °C 9.0 °C 1023.2 hPa WNW 8.0 km/h 12.9 km/h 72 % 0.0 mm 255 W/m2
11:55 14.1 °C 8.9 °C 1023.2 hPa WNW 8.0 km/h 12.9 km/h 71 % 0.0 mm 220 W/m2
12:00 13.9 °C 8.6 °C 1023.2 hPa NW 11.3 km/h 12.9 km/h 70 % 0.0 mm 281 W/m2
12:05 14.1 °C 9.1 °C 1023.2 hPa WNW 6.4 km/h 12.9 km/h 72 % 0.0 mm 308 W/m2
12:10 14.2 °C 9.2 °C 1023.2 hPa WNW 1.6 km/h 16.1 km/h 72 % 0.0 mm 290 W/m2
12:15 14.3 °C 8.7 °C 1023.2 hPa WNW 8.0 km/h 16.1 km/h 69 % 0.0 mm 274 W/m2
12:20 14.2 °C 9.0 °C 1023.2 hPa WNW 12.9 km/h 16.1 km/h 71 % 0.0 mm 236 W/m2
12:25 13.9 °C 9.0 °C 1023.2 hPa WNW 3.2 km/h 16.1 km/h 72 % 0.0 mm 216 W/m2
12:30 13.9 °C 8.3 °C 1023.2 hPa WNW 3.2 km/h 17.7 km/h 69 % 0.0 mm 225 W/m2
12:35 14.1 °C 9.3 °C 1023.2 hPa NW 6.4 km/h 17.7 km/h 73 % 0.0 mm 279 W/m2
12:45 14.3 °C 9.1 °C 1023.2 hPa NNW 1.6 km/h 12.9 km/h 71 % 0.0 mm 290 W/m2
12:50 14.3 °C 9.1 °C 1023.2 hPa NW 11.3 km/h 16.1 km/h 71 % 0.0 mm 236 W/m2
12:55 14.0 °C 9.2 °C 1023.2 hPa WNW 9.7 km/h 16.1 km/h 73 % 0.0 mm 206 W/m2
13:00 13.7 °C 9.2 °C 1023.6 hPa WNW 6.4 km/h 16.1 km/h 74 % 0.0 mm 239 W/m2
13:05 13.7 °C 9.3 °C 1023.6 hPa West 3.2 km/h 16.1 km/h 75 % 0.0 mm 209 W/m2
13:10 13.7 °C 9.6 °C 1023.6 hPa West 6.4 km/h 19.3 km/h 76 % 0.0 mm 176 W/m2
13:15 13.6 °C 9.5 °C 1023.6 hPa West 6.4 km/h 20.9 km/h 76 % 0.0 mm 176 W/m2
13:20 13.5 °C 9.5 °C 1023.2 hPa WSW 14.5 km/h 20.9 km/h 77 % 0.0 mm 174 W/m2
13:25 13.6 °C 9.8 °C 1023.6 hPa WNW 3.2 km/h 17.7 km/h 78 % 0.0 mm 206 W/m2
13:30 13.7 °C 9.7 °C 1023.6 hPa WNW 9.7 km/h 14.5 km/h 77 % 0.0 mm 248 W/m2
13:35 13.8 °C 9.8 °C 1023.6 hPa WNW 4.8 km/h 17.7 km/h 77 % 0.0 mm 304 W/m2
13:40 14.0 °C 10.4 °C 1023.6 hPa West 12.9 km/h 17.7 km/h 79 % 0.0 mm 383 W/m2
13:45 14.3 °C 10.3 °C 1023.2 hPa WNW 6.4 km/h 17.7 km/h 77 % 0.0 mm 439 W/m2
13:50 14.6 °C 10.6 °C 1023.2 hPa West 8.0 km/h 17.7 km/h 77 % 0.0 mm 471 W/m2
13:55 14.7 °C 10.3 °C 1023.2 hPa WNW 9.7 km/h 19.3 km/h 75 % 0.0 mm 364 W/m2
14:00 14.5 °C 10.3 °C 1023.2 hPa WNW 6.4 km/h 20.9 km/h 76 % 0.0 mm 237 W/m2
14:05 14.2 °C 10.2 °C 1023.2 hPa West 3.2 km/h 20.9 km/h 77 % 0.0 mm 199 W/m2
14:10 14.0 °C 10.2 °C 1023.2 hPa West 6.4 km/h 19.3 km/h 78 % 0.0 mm 185 W/m2
14:15 14.0 °C 10.0 °C 1023.2 hPa West 4.8 km/h 19.3 km/h 77 % 0.0 mm 186 W/m2
14:20 14.0 °C 10.0 °C 1023.2 hPa WNW 6.4 km/h 16.1 km/h 77 % 0.0 mm 163 W/m2
14:25 13.9 °C 9.8 °C 1023.2 hPa WNW 4.8 km/h 16.1 km/h 76 % 0.0 mm 178 W/m2
14:30 13.9 °C 9.7 °C 1023.2 hPa West 3.2 km/h 14.5 km/h 76 % 0.0 mm 237 W/m2
14:35 14.1 °C 9.7 °C 1023.2 hPa West 4.8 km/h 17.7 km/h 75 % 0.0 mm 334 W/m2
14:40 14.3 °C 9.7 °C 1023.2 hPa WSW 9.7 km/h 20.9 km/h 74 % 0.0 mm 404 W/m2
14:45 14.4 °C 9.9 °C 1023.2 hPa WSW 11.3 km/h 20.9 km/h 74 % 0.0 mm 315 W/m2
14:50 14.2 °C 10.0 °C 1023.2 hPa Calm   17.7 km/h 76 % 0.0 mm 230 W/m2
14:55 13.9 °C 10.0 °C 1023.2 hPa West 16.1 km/h 17.7 km/h 77 % 0.0 mm 171 W/m2
15:00 13.8 °C 10.0 °C 1023.2 hPa Calm   17.7 km/h 78 % 0.0 mm 137 W/m2
15:05 13.6 °C 9.8 °C 1023.2 hPa West 9.7 km/h 17.7 km/h 78 % 0.0 mm 134 W/m2
15:10 13.6 °C 10.0 °C 1023.2 hPa West 4.8 km/h 17.7 km/h 79 % 0.0 mm 163 W/m2
15:15 13.6 °C 9.8 °C 1023.2 hPa West 12.9 km/h 14.5 km/h 78 % 0.0 mm 197 W/m2
15:20 13.8 °C 10.0 °C 1023.2 hPa NW 9.7 km/h 14.5 km/h 78 % 0.0 mm 213 W/m2
15:25 13.9 °C 10.4 °C 1023.2 hPa West 12.9 km/h 19.3 km/h 79 % 0.0 mm 262 W/m2
15:30 14.1 °C 10.5 °C 1023.2 hPa West 6.4 km/h 24.1 km/h 79 % 0.0 mm 246 W/m2
15:35 14.3 °C 10.7 °C 1023.2 hPa West 8.0 km/h 24.1 km/h 79 % 0.0 mm 323 W/m2
15:40 14.5 °C 10.5 °C 1023.2 hPa WSW 19.3 km/h 20.9 km/h 77 % 0.0 mm 352 W/m2
15:45 14.3 °C 10.5 °C 1023.2 hPa West 12.9 km/h 20.9 km/h 78 % 0.0 mm 269 W/m2
15:50 14.3 °C 10.5 °C 1023.2 hPa NW 17.7 km/h 22.5 km/h 78 % 0.0 mm 236 W/m2
15:55 14.2 °C 10.4 °C 1023.2 hPa WSW 11.3 km/h 22.5 km/h 78 % 0.0 mm 264 W/m2
16:00 14.3 °C 10.7 °C 1023.2 hPa West 6.4 km/h 20.9 km/h 79 % 0.0 mm 373 W/m2
16:05 14.6 °C 10.8 °C 1023.2 hPa WNW 12.9 km/h 20.9 km/h 78 % 0.0 mm 557 W/m2
16:10 14.8 °C 10.2 °C 1023.2 hPa WSW 11.3 km/h 24.1 km/h 74 % 0.0 mm 501 W/m2
16:15 15.1 °C 10.7 °C 1023.2 hPa West 12.9 km/h 24.1 km/h 75 % 0.0 mm 454 W/m2
16:20 14.9 °C 10.3 °C 1023.2 hPa West 6.4 km/h 24.1 km/h 74 % 0.0 mm 434 W/m2
16:25 15.3 °C 11.3 °C 1023.2 hPa WSW 4.8 km/h 24.1 km/h 77 % 0.0 mm 872 W/m2
16:30 15.0 °C 10.6 °C 1023.2 hPa West 8.0 km/h 24.1 km/h 75 % 0.0 mm 318 W/m2
16:35 14.6 °C 10.6 °C 1023.2 hPa West 14.5 km/h 25.7 km/h 77 % 0.0 mm 394 W/m2
16:40 14.5 °C 10.3 °C 1023.2 hPa WNW 11.3 km/h 25.7 km/h 76 % 0.0 mm 318 W/m2
16:45 14.3 °C 10.4 °C 1023.2 hPa WNW 11.3 km/h 24.1 km/h 77 % 0.0 mm 272 W/m2
16:50 14.3 °C 10.7 °C 1023.2 hPa WNW 4.8 km/h 24.1 km/h 79 % 0.0 mm 267 W/m2
16:55 14.3 °C 10.5 °C 1023.2 hPa NNW 17.7 km/h 24.1 km/h 78 % 0.0 mm 255 W/m2
17:00 14.5 °C 11.1 °C 1023.2 hPa WNW 9.7 km/h 20.9 km/h 80 % 0.0 mm 309 W/m2
17:05 14.4 °C 10.8 °C 1023.2 hPa West 6.4 km/h 25.7 km/h 79 % 0.0 mm 313 W/m2
17:10 14.4 °C 11.0 °C 1023.2 hPa West 20.9 km/h 25.7 km/h 80 % 0.0 mm 294 W/m2
17:15 14.1 °C 10.8 °C 1023.2 hPa WNW 14.5 km/h 27.4 km/h 81 % 0.0 mm 264 W/m2
17:20 14.1 °C 11.1 °C 1023.2 hPa West 16.1 km/h 27.4 km/h 82 % 0.0 mm 225 W/m2
17:25 14.2 °C 11.2 °C 1023.2 hPa WSW 12.9 km/h 19.3 km/h 82 % 0.0 mm 225 W/m2
17:35 14.2 °C 11.3 °C 1023.2 hPa WNW 8.0 km/h 20.9 km/h 83 % 0.0 mm 221 W/m2
17:40 14.1 °C 11.2 °C 1023.2 hPa WNW 14.5 km/h 24.1 km/h 83 % 0.0 mm 190 W/m2
17:45 13.9 °C 11.3 °C 1023.2 hPa WNW 9.7 km/h 24.1 km/h 84 % 0.0 mm 216 W/m2
17:55 14.2 °C 10.8 °C 1023.2 hPa WNW 17.7 km/h 20.9 km/h 80 % 0.0 mm 243 W/m2
18:00 14.3 °C 10.7 °C 1023.2 hPa WNW 9.7 km/h 20.9 km/h 79 % 0.0 mm 211 W/m2
18:05 14.2 °C 10.8 °C 1023.2 hPa West 14.5 km/h 17.7 km/h 80 % 0.0 mm 179 W/m2
18:10 14.2 °C 11.2 °C 1023.2 hPa WNW 4.8 km/h 17.7 km/h 82 % 0.0 mm 158 W/m2
18:15 14.3 °C 11.2 °C 1023.2 hPa West 9.7 km/h 17.7 km/h 82 % 0.0 mm 135 W/m2
18:20 14.2 °C 11.1 °C 1023.2 hPa West 9.7 km/h 19.3 km/h 82 % 0.0 mm 121 W/m2
18:25 14.0 °C 10.8 °C 1023.2 hPa WNW 6.4 km/h 19.3 km/h 81 % 0.0 mm 123 W/m2
18:30 14.0 °C 11.0 °C 1023.2 hPa WNW 6.4 km/h 19.3 km/h 82 % 0.0 mm 132 W/m2
18:35 13.9 °C 10.9 °C 1023.2 hPa WNW 12.9 km/h 22.5 km/h 82 % 0.0 mm 144 W/m2
18:45 13.9 °C 10.9 °C 1023.2 hPa West 6.4 km/h 19.3 km/h 82 % 0.0 mm 114 W/m2
18:50 13.8 °C 10.8 °C 1023.2 hPa WNW 6.4 km/h 16.1 km/h 82 % 0.0 mm 98 W/m2
18:55 13.7 °C 10.6 °C 1023.2 hPa WNW 9.7 km/h 16.1 km/h 82 % 0.0 mm 81 W/m2
19:00 13.6 °C 10.5 °C 1023.2 hPa NW 6.4 km/h 17.7 km/h 82 % 0.0 mm 70 W/m2
19:05 13.5 °C 10.5 °C 1023.2 hPa NW 6.4 km/h 17.7 km/h 82 % 0.0 mm 62 W/m2
19:10 13.4 °C 10.4 °C 1023.2 hPa NW 9.7 km/h 16.1 km/h 82 % 0.0 mm 65 W/m2
19:15 13.3 °C 10.3 °C 1023.2 hPa NNW 11.3 km/h 12.9 km/h 82 % 0.0 mm 62 W/m2
19:20 13.3 °C 10.3 °C 1023.2 hPa NW 8.0 km/h 12.9 km/h 82 % 0.0 mm 51 W/m2
19:25 13.3 °C 10.3 °C 1023.2 hPa NW 4.8 km/h 14.5 km/h 82 % 0.0 mm 49 W/m2
19:30 13.3 °C 10.5 °C 1023.2 hPa WNW 11.3 km/h 14.5 km/h 83 % 0.0 mm 44 W/m2
19:35 13.3 °C 10.5 °C 1023.2 hPa WNW 9.7 km/h 16.1 km/h 83 % 0.0 mm 39 W/m2
19:40 13.2 °C 10.6 °C 1023.2 hPa NNW 12.9 km/h 16.1 km/h 84 % 0.0 mm 37 W/m2
19:45 13.2 °C 10.6 °C 1023.2 hPa West 6.4 km/h 16.1 km/h 84 % 0.0 mm 35 W/m2
19:50 13.2 °C 10.5 °C 1023.2 hPa WNW 4.8 km/h 16.1 km/h 84 % 0.0 mm 33 W/m2
19:55 13.2 °C 10.7 °C 1023.2 hPa NNW 4.8 km/h 16.1 km/h 85 % 0.0 mm 30 W/m2
20:00 13.2 °C 10.7 °C 1023.6 hPa WNW 8.0 km/h 14.5 km/h 85 % 0.0 mm 28 W/m2
20:05 13.1 °C 10.6 °C 1023.6 hPa WNW 8.0 km/h 16.1 km/h 85 % 0.0 mm 28 W/m2
20:10 13.1 °C 10.6 °C 1023.6 hPa WNW 11.3 km/h 16.1 km/h 85 % 0.0 mm 26 W/m2
20:15 13.1 °C 10.6 °C 1023.6 hPa West 4.8 km/h 14.5 km/h 85 % 0.0 mm 21 W/m2
20:20 13.1 °C 10.6 °C 1023.6 hPa NW 4.8 km/h 14.5 km/h 85 % 0.0 mm 16 W/m2
20:25 13.0 °C 10.5 °C 1023.6 hPa WNW 6.4 km/h 12.9 km/h 85 % 0.0 mm 14 W/m2
20:30 13.0 °C 10.4 °C 1023.6 hPa West 6.4 km/h 12.9 km/h 84 % 0.0 mm 11 W/m2
20:35 12.9 °C 10.3 °C 1023.6 hPa NW 8.0 km/h 14.5 km/h 84 % 0.0 mm 7 W/m2
20:40 12.9 °C 10.3 °C 1023.6 hPa NNW 6.4 km/h 14.5 km/h 84 % 0.0 mm 5 W/m2
20:45 12.9 °C 10.3 °C 1023.6 hPa West 6.4 km/h 12.9 km/h 84 % 0.0 mm 5 W/m2
20:50 12.9 °C 10.2 °C 1023.6 hPa WNW 11.3 km/h 16.1 km/h 84 % 0.0 mm 0 W/m2
20:55 12.8 °C 10.4 °C 1023.6 hPa WNW 9.7 km/h 16.1 km/h 85 % 0.0 mm 0 W/m2
21:00 12.8 °C 10.4 °C 1023.6 hPa WNW 3.2 km/h 16.1 km/h 85 % 0.0 mm 0 W/m2
21:05 12.8 °C 10.3 °C 1023.9 hPa West 4.8 km/h 16.1 km/h 85 % 0.0 mm 0 W/m2
21:10 12.8 °C 10.5 °C 1023.9 hPa WNW 8.0 km/h 16.1 km/h 86 % 0.0 mm 0 W/m2
21:15 12.8 °C 10.7 °C 1023.9 hPa NW 8.0 km/h 16.1 km/h 87 % 0.0 mm 0 W/m2
21:20 12.8 °C 10.7 °C 1023.9 hPa NW 9.7 km/h 16.1 km/h 87 % 0.0 mm 0 W/m2
21:25 12.8 °C 10.8 °C 1023.9 hPa NW 6.4 km/h 16.1 km/h 88 % 0.0 mm 0 W/m2
21:30 12.8 °C 10.8 °C 1023.9 hPa NW 9.7 km/h 19.3 km/h 88 % 0.0 mm 0 W/m2
21:35 12.7 °C 10.8 °C 1024.3 hPa West 11.3 km/h 19.3 km/h 88 % 0.0 mm 0 W/m2
21:40 12.7 °C 10.8 °C 1024.3 hPa WNW 3.2 km/h 19.3 km/h 88 % 0.0 mm 0 W/m2
21:45 12.7 °C 10.8 °C 1024.3 hPa WNW 4.8 km/h 19.3 km/h 88 % 0.0 mm 0 W/m2
21:50 12.7 °C 10.8 °C 1024.3 hPa WNW 9.7 km/h 14.5 km/h 88 % 0.0 mm 0 W/m2
21:55 12.7 °C 10.8 °C 1024.3 hPa NW 4.8 km/h 14.5 km/h 88 % 0.0 mm 0 W/m2
22:00 12.7 °C 10.8 °C 1024.3 hPa NW 3.2 km/h 14.5 km/h 88 % 0.0 mm 0 W/m2
22:05 12.7 °C 10.9 °C 1024.3 hPa NNW 6.4 km/h 11.3 km/h 89 % 0.0 mm 0 W/m2
22:10 12.6 °C 10.8 °C 1024.6 hPa Calm   11.3 km/h 89 % 0.0 mm 0 W/m2
22:15 12.6 °C 11.0 °C 1024.6 hPa NW 1.6 km/h 16.1 km/h 90 % 0.0 mm 0 W/m2
22:20 12.3 °C 10.5 °C 1024.6 hPa North 9.7 km/h 22.5 km/h 89 % 0.0 mm 0 W/m2
22:25 11.9 °C 10.0 °C 1024.6 hPa North 8.0 km/h 22.5 km/h 88 % 0.0 mm 0 W/m2
22:30 11.8 °C 9.7 °C 1024.6 hPa NNE 17.7 km/h 19.3 km/h 87 % 0.0 mm 0 W/m2
22:35 11.8 °C 9.7 °C 1024.6 hPa NNE 6.4 km/h 17.7 km/h 87 % 0.0 mm 0 W/m2
22:40 11.8 °C 9.6 °C 1024.9 hPa North 1.6 km/h 14.5 km/h 86 % 0.0 mm 0 W/m2
22:45 11.8 °C 9.5 °C 1024.9 hPa NNE 3.2 km/h 9.7 km/h 86 % 0.0 mm 0 W/m2
22:50 11.8 °C 9.4 °C 1024.6 hPa Calm   6.4 km/h 85 % 0.0 mm 0 W/m2
22:55 11.9 °C 9.4 °C 1024.9 hPa Calm   6.4 km/h 85 % 0.0 mm 0 W/m2
23:00 11.8 °C 9.6 °C 1024.9 hPa Calm   3.2 km/h 86 % 0.0 mm 0 W/m2
23:05 11.8 °C 9.5 °C 1024.9 hPa Calm   1.6 km/h 86 % 0.0 mm 0 W/m2
23:10 11.8 °C 9.7 °C 1024.9 hPa Calm   1.6 km/h 87 % 0.0 mm 0 W/m2
23:15 11.7 °C 9.6 °C 1024.9 hPa Calm     87 % 0.0 mm 0 W/m2
23:20 11.6 °C 9.5 °C 1024.9 hPa Calm   1.6 km/h 87 % 0.0 mm 0 W/m2
23:25 11.6 °C 9.6 °C 1024.9 hPa Calm   1.6 km/h 88 % 0.0 mm 0 W/m2
23:30 11.4 °C 9.6 °C 1024.9 hPa Calm     89 % 0.0 mm 0 W/m2
23:35 11.3 °C 9.5 °C 1024.9 hPa Calm   1.6 km/h 89 % 0.0 mm 0 W/m2
23:40 11.2 °C 9.6 °C 1024.9 hPa Calm   1.6 km/h 90 % 0.0 mm 0 W/m2
23:45 11.1 °C 9.5 °C 1024.9 hPa Calm     90 % 0.0 mm 0 W/m2
23:55 11.0 °C 9.6 °C 1024.9 hPa Calm     91 % 0.0 mm 0 W/m2
Avec l'autorisation de Weather Underground - 1.75 mb